• In Uzbekistan
  • List of Countries
  • For 7 days
  • Water Temperature
  • Satellite Maps
  • Weather Map
  • Weather Widgets
  • user-avatar
    Login

    Hourly Weather Poti

    Today, 13 December, Thursday

    Time Temperature Precipitation Wind Pressure Humidity
    00:00 +8°C° 0.8 mm 4 mps 759 mmHg 94%
    01:00 +8°C° 0.7 mm 4 mps 760 mmHg 94%
    02:00 +8°C° 0.7 mm 4 mps 760 mmHg 94%
    03:00 +8°C° 0 mm 6 mps 761 mmHg 91%
    04:00 +7°C° 0.7 mm 5 mps 761 mmHg 90%
    05:00 +7°C° 0.7 mm 5 mps 762 mmHg 89%
    06:00 +7°C° 0.7 mm 4 mps 762 mmHg 88%
    07:00 +7°C° 0.8 mm 4 mps 763 mmHg 87%
    08:00 +7°C° 0.8 mm 4 mps 763 mmHg 86%
    09:00 +7°C° 0.8 mm 4 mps 764 mmHg 85%
    10:00 +7°C° 1.2 mm 4 mps 764 mmHg 85%
    11:00 +7°C° 1.2 mm 4 mps 764 mmHg 85%
    12:00 +7°C° 1.2 mm 5 mps 765 mmHg 85%
    13:00 +7°C° 1.3 mm 5 mps 765 mmHg 86%
    14:00 +7°C° 1.3 mm 5 mps 766 mmHg 86%
    15:00 +7°C° 1.3 mm 6 mps 766 mmHg 87%
    16:00 +7°C° 1.1 mm 5 mps 767 mmHg 87%
    17:00 +7°C° 1.1 mm 5 mps 768 mmHg 88%
    18:00 +7°C° 1.1 mm 4 mps 768 mmHg 88%
    19:00 +6°C° 0.7 mm 4 mps 769 mmHg 88%
    20:00 +7°C° 0.7 mm 3 mps 769 mmHg 88%
    21:00 +7°C° 0.7 mm 2 mps 769 mmHg 87%
    22:00 +7°C° 0.4 mm 2 mps 770 mmHg 87%
    23:00 +7°C° 0.4 mm 2 mps 770 mmHg 87%

    Tomorrow, 14 December, Friday

    Time Temperature Precipitation Wind Pressure Humidity
    00:00 +7°C° 0.4 mm 2 mps 770 mmHg 87%
    01:00 +6°C° 0.2 mm 2 mps 770 mmHg 86%
    02:00 +6°C° 0.2 mm 2 mps 771 mmHg 85%
    03:00 +5°C° 0.2 mm 2 mps 771 mmHg 84%
    04:00 +4°C° 0 mm 3 mps 771 mmHg 83%
    05:00 +4°C° 0 mm 3 mps 771 mmHg 81%
    06:00 +3°C° 0 mm 4 mps 770 mmHg 79%
    07:00 +4°C° 0 mm 4 mps 770 mmHg 77%
    08:00 +3°C° 0 mm 5 mps 770 mmHg 75%
    09:00 +5°C° 0 mm 5 mps 770 mmHg 73%
    10:00 +6°C° 0 mm 5 mps 770 mmHg 71%
    11:00 +7°C° 0 mm 4 mps 769 mmHg 69%
    12:00 +8°C° 0 mm 4 mps 769 mmHg 67%
    13:00 +8°C° 0 mm 4 mps 769 mmHg 68%
    14:00 +9°C° 0 mm 3 mps 769 mmHg 68%
    15:00 +9°C° 0 mm 3 mps 769 mmHg 69%
    16:00 +8°C° 0 mm 3 mps 769 mmHg 71%
    17:00 +7°C° 0 mm 3 mps 770 mmHg 73%
    18:00 +5°C° 0 mm 3 mps 770 mmHg 75%
    19:00 +5°C° 0 mm 3 mps 771 mmHg 74%
    20:00 +5°C° 0 mm 3 mps 771 mmHg 74%
    21:00 +5°C° 0 mm 3 mps 771 mmHg 74%
    22:00 +5°C° 0 mm 3 mps 771 mmHg 74%
    23:00 +5°C° 0 mm 3 mps 772 mmHg 74%

    Day after tomorrow, 15 December, Saturday

    Time Temperature Precipitation Wind Pressure Humidity
    00:00 +4°C° 0 mm 3 mps 772 mmHg 73%
    01:00 +4°C° 0 mm 4 mps 772 mmHg 73%
    02:00 +4°C° 0 mm 4 mps 772 mmHg 73%
    03:00 +4°C° 0 mm 4 mps 772 mmHg 72%
    04:00 +3°C° 0 mm 5 mps 772 mmHg 71%
    05:00 +3°C° 0 mm 5 mps 772 mmHg 70%
    06:00 +2°C° 0 mm 5 mps 772 mmHg 69%
    07:00 +3°C° 0 mm 5 mps 772 mmHg 67%
    08:00 +5°C° 0 mm 5 mps 772 mmHg 66%
    09:00 +5°C° 0 mm 5 mps 772 mmHg 64%
    10:00 +7°C° 0 mm 5 mps 772 mmHg 61%
    11:00 +8°C° 0 mm 5 mps 771 mmHg 57%
    12:00 +10°C° 0 mm 5 mps 771 mmHg 54%
    13:00 +10°C° 0 mm 5 mps 770 mmHg 56%
    14:00 +10°C° 0 mm 5 mps 770 mmHg 58%
    15:00 +10°C° 0 mm 5 mps 770 mmHg 60%
    16:00 +9°C° 0 mm 5 mps 770 mmHg 62%
    17:00 +8°C° 0 mm 5 mps 770 mmHg 65%
    18:00 +7°C° 0 mm 5 mps 771 mmHg 68%
    19:00 +6°C° 0 mm 5 mps 771 mmHg 66%
    20:00 +6°C° 0 mm 5 mps 770 mmHg 64%
    21:00 +6°C° 0 mm 5 mps 770 mmHg 63%
    22:00 +5°C° 0 mm 6 mps 770 mmHg 61%
    23:00 +5°C° 0 mm 6 mps 770 mmHg 60%

    16 December, Sunday

    Time Temperature Precipitation Wind Pressure Humidity
    00:00 +5°C° 0 mm 6 mps 770 mmHg 59%
    01:00 +5°C° 0 mm 6 mps 770 mmHg 58%
    02:00 +5°C° 0 mm 6 mps 769 mmHg 58%
    03:00 +5°C° 0 mm 6 mps 769 mmHg 57%
    04:00 +5°C° 0 mm 6 mps 769 mmHg 57%
    05:00 +5°C° 0 mm 6 mps 769 mmHg 57%
    06:00 +5°C° 0 mm 6 mps 768 mmHg 56%
    07:00 +7°C° 0 mm 6 mps 768 mmHg 56%
    08:00 +7°C° 0 mm 6 mps 768 mmHg 55%
    09:00 +8°C° 0 mm 6 mps 768 mmHg 54%
    10:00 +10°C° 0 mm 6 mps 767 mmHg 53%
    11:00 +13°C° 0 mm 6 mps 766 mmHg 51%
    12:00 +15°C° 0 mm 6 mps 765 mmHg 49%
    13:00 +15°C° 0 mm 5 mps 765 mmHg 51%
    14:00 +15°C° 0 mm 5 mps 765 mmHg 52%
    15:00 +14°C° 0 mm 5 mps 764 mmHg 54%
    16:00 +13°C° 0 mm 5 mps 764 mmHg 54%
    17:00 +11°C° 0 mm 6 mps 764 mmHg 54%
    18:00 +10°C° 0 mm 6 mps 765 mmHg 55%
    19:00 +10°C° 0 mm 6 mps 765 mmHg 53%
    20:00 +10°C° 0 mm 7 mps 765 mmHg 52%
    21:00 +9°C° 0 mm 7 mps 765 mmHg 50%
    22:00 +9°C° 0 mm 7 mps 764 mmHg 50%
    23:00 +9°C° 0 mm 7 mps 764 mmHg 50%

    17 December, Monday

    Time Temperature Precipitation Wind Pressure Humidity
    00:00 +9°C° 0 mm 8 mps 764 mmHg 50%
    01:00 +9°C° 0 mm 8 mps 764 mmHg 50%
    02:00 +9°C° 0 mm 7 mps 764 mmHg 51%
    03:00 +9°C° 0 mm 7 mps 764 mmHg 51%
    04:00 +9°C° 0 mm 7 mps 763 mmHg 51%
    05:00 +9°C° 0 mm 7 mps 763 mmHg 51%
    06:00 +9°C° 0 mm 7 mps 763 mmHg 51%
    07:00 +9°C° 0 mm 7 mps 763 mmHg 52%
    08:00 +9°C° 0 mm 7 mps 763 mmHg 52%
    09:00 +9°C° 0 mm 7 mps 762 mmHg 52%
    10:00 +11°C° 0 mm 6 mps 762 mmHg 51%
    11:00 +13°C° 0 mm 6 mps 762 mmHg 50%
    12:00 +14°C° 0 mm 6 mps 761 mmHg 49%
    13:00 +14°C° 0 mm 5 mps 761 mmHg 51%
    14:00 +14°C° 0 mm 5 mps 761 mmHg 53%
    15:00 +14°C° 0 mm 5 mps 761 mmHg 55%
    16:00 +13°C° 0 mm 5 mps 761 mmHg 57%
    17:00 +12°C° 0 mm 4 mps 762 mmHg 58%
    18:00 +11°C° 0 mm 4 mps 762 mmHg 60%
    19:00 +10°C° 0 mm 4 mps 762 mmHg 60%
    20:00 +10°C° 0 mm 4 mps 763 mmHg 60%
    21:00 +10°C° 0 mm 4 mps 763 mmHg 59%
    22:00 +8°C° 0 mm 4 mps 763 mmHg 60%
    23:00 +8°C° 0 mm 4 mps 763 mmHg 60%

    18 December, Tuesday

    Time Temperature Precipitation Wind Pressure Humidity
    00:00 +8°C° 0 mm 4 mps 763 mmHg 60%
    01:00 +8°C° 0 mm 4 mps 763 mmHg 61%
    02:00 +8°C° 0 mm 4 mps 763 mmHg 62%
    03:00 +8°C° 0 mm 4 mps 763 mmHg 63%
    04:00 +8°C° 0 mm 4 mps 763 mmHg 63%
    05:00 +8°C° 0 mm 3 mps 764 mmHg 64%
    06:00 +8°C° 0 mm 3 mps 764 mmHg 65%
    07:00 +9°C° 0 mm 3 mps 764 mmHg 65%
    08:00 +9°C° 0 mm 3 mps 764 mmHg 66%
    09:00 +9°C° 0 mm 3 mps 765 mmHg 67%
    10:00 +10°C° 0 mm 3 mps 765 mmHg 64%
    11:00 +11°C° 0 mm 3 mps 764 mmHg 62%
    12:00 +12°C° 0 mm 3 mps 764 mmHg 60%
    13:00 +13°C° 0 mm 2 mps 764 mmHg 61%
    14:00 +13°C° 0 mm 2 mps 764 mmHg 62%
    15:00 +13°C° 0 mm 2 mps 764 mmHg 63%
    16:00 +12°C° 0 mm 2 mps 765 mmHg 67%
    17:00 +10°C° 0 mm 2 mps 765 mmHg 70%
    18:00 +9°C° 0 mm 2 mps 766 mmHg 73%
    19:00 +9°C° 0 mm 2 mps 766 mmHg 73%
    20:00 +8°C° 0 mm 2 mps 766 mmHg 74%
    21:00 +8°C° 0 mm 3 mps 767 mmHg 74%
    22:00 +8°C° 0 mm 3 mps 767 mmHg 73%
    23:00 +8°C° 0 mm 3 mps 767 mmHg 73%
    Show more